Flag for U.S.A. Weather past 2 weeks in French Lick, Indiana, U.S.A.

Now
52 °F

Clear.


Feels Like: 51 °F
Forecast: 46 / 76 °F
Wind: 5 mph from East

Location: Huntingburg Airport


UV Index: 5 (Moderate)

Visibility: 10 mi


Pressure: 30.21 "Hg

Humidity: 54%

Dew point: 36 °F

Location of French LickLocation

Historic Weather in French Lick

°F

French Lick temperature yesterday

Maximum temperature yesterday: 73 °F (at 3:55 PM)
Minimum temperature yesterday: 48 °F (at 6:15 AM)
Average temperature yesterday: 60 °F

Past Weeks' High & Low Weather Summary

 TemperatureHumidityPressure
High79 °F (Apr 12, 3:55 PM)87% (Apr 6, 2:15 AM)30.37 "Hg (Apr 6, 2:15 AM)
Low28 °F (Apr 16, 4:15 AM)27% (Apr 19, 3:55 PM)29.44 "Hg (Apr 7, 2:55 PM)
Average55 °F58%30.03 "Hg
* Reported Apr 5 2:15 AM — Apr 20 2:35 AM, French Lick, Weather by CustomWeather, © 2014

Note: Actual official high and low records may vary slightly from our data, if they occured in-between our weather recording intervals... More about our weather records

Advertising

Historic Weather Conditions — Data for Previous 24 hours

 ConditionsComfort  
Time TempWeatherWind HumidityBarometerVisibility
2:35 AM
Apr 20
54 °FClear.6 mph51%30.21 "Hg10 mi
2:15 AM52 °FClear.6 mph54%30.21 "Hg10 mi
1:55 AM54 °FClear.6 mph51%30.21 "Hg10 mi
1:35 AM55 °FClear.6 mph47%30.21 "Hg10 mi
1:15 AM55 °FClear.7 mph47%30.21 "Hg10 mi
12:55 AM55 °FClear.7 mph51%30.21 "Hg10 mi
12:35 AM55 °FClear.7 mph51%30.21 "Hg10 mi
12:15 AM57 °FClear.8 mph48%30.21 "Hg10 mi
11:55 PM
Apr 19
57 °FClear.8 mph48%30.21 "Hg10 mi
11:35 PM57 °FClear.7 mph48%30.22 "Hg10 mi
11:15 PM57 °FClear.7 mph48%30.22 "Hg10 mi
10:55 PM57 °FClear.7 mph48%30.22 "Hg10 mi
10:35 PM61 °FClear.7 mph42%30.22 "Hg10 mi
10:15 PM61 °FClear.7 mph42%30.21 "Hg10 mi
9:55 PM61 °FClear.7 mph42%30.21 "Hg10 mi
9:35 PM63 °FClear.7 mph39%30.20 "Hg10 mi
9:15 PM63 °FSunny.6 mph39%30.20 "Hg10 mi
8:55 PM63 °FSunny.7 mph42%30.20 "Hg10 mi
8:35 PM64 °FSunny.8 mph37%30.20 "Hg10 mi
8:15 PM64 °FSunny.8 mph40%30.19 "Hg10 mi
7:55 PM66 °FSunny.9 mph37%30.19 "Hg10 mi
7:35 PM70 °FSunny.8 mph31%30.19 "Hg10 mi
7:15 PM70 °FSunny.10 mph33%30.19 "Hg10 mi
6:55 PM70 °FSunny.10 mph33%30.19 "Hg10 mi
6:35 PM72 °FSunny.7 mph33%30.20 "Hg10 mi
6:15 PM72 °FSunny.10 mph31%30.19 "Hg10 mi
5:55 PM72 °FSunny.10 mph31%30.20 "Hg10 mi
5:35 PM72 °FSunny.7 mph31%30.20 "Hg10 mi
5:15 PM72 °FSunny.7 mph31%30.20 "Hg10 mi
4:55 PM72 °FSunny.10 mph31%30.20 "Hg10 mi
4:35 PM72 °FSunny.13 mph29%30.20 "Hg10 mi
4:15 PM72 °FSunny.12 mph29%30.20 "Hg10 mi
3:55 PM73 °FSunny.9 mph27%30.21 "Hg10 mi
3:35 PM72 °FSunny.12 mph29%30.22 "Hg10 mi
3:15 PM72 °FSunny.6 mph29%30.22 "Hg10 mi
2:55 PM72 °FSunny.9 mph29%30.22 "Hg10 mi
2:35 PM72 °FSunny.12 mph31%30.22 "Hg10 mi
2:15 PM72 °FSunny.13 mph31%30.23 "Hg10 mi
1:55 PM72 °FSunny.10 mph31%30.24 "Hg10 mi
1:35 PM70 °FSunny.5 mph38%30.25 "Hg10 mi
1:15 PM70 °FSunny.7 mph38%30.26 "Hg10 mi
12:55 PM70 °FSunny.8 mph40%30.27 "Hg10 mi
12:35 PM68 °FSunny.5 mph43%30.27 "Hg10 mi
12:15 PM66 °FSunny.8 mph43%30.29 "Hg10 mi
11:55 AM66 °FSunny.6 mph46%30.29 "Hg10 mi
11:35 AM66 °FSunny.6 mph46%30.29 "Hg10 mi
10:55 AM63 °FSunny.9 mph49%30.29 "Hg10 mi
10:35 AM61 °FSunny.7 mph52%30.29 "Hg10 mi
10:15 AM59 °FSunny.7 mph51%30.29 "Hg10 mi
9:55 AM57 °FSunny.9 mph51%30.29 "Hg10 mi
9:35 AM55 °FSunny.9 mph59%30.29 "Hg10 mi
9:15 AM55 °FSunny.9 mph55%30.29 "Hg10 mi
8:55 AM54 °FSunny.9 mph58%30.29 "Hg10 mi
8:35 AM52 °FSunny.8 mph62%30.29 "Hg10 mi
8:15 AM50 °FSunny.8 mph67%30.28 "Hg10 mi
7:55 AM48 °FClear.8 mph66%30.28 "Hg10 mi
7:35 AM48 °FClear.8 mph62%30.27 "Hg10 mi
7:15 AM48 °FClear.7 mph62%30.27 "Hg10 mi
6:55 AM48 °FClear.6 mph62%30.26 "Hg10 mi
6:35 AM48 °FClear.7 mph66%30.26 "Hg10 mi
6:15 AM48 °FClear.6 mph66%30.25 "Hg10 mi
5:55 AM50 °FClear.7 mph62%30.24 "Hg10 mi
5:35 AM50 °FClear.6 mph62%30.24 "Hg10 mi
5:15 AM52 °FClear.7 mph58%30.24 "Hg10 mi
4:55 AM52 °FClear.8 mph62%30.24 "Hg10 mi
4:35 AM52 °FClear.9 mph62%30.24 "Hg10 mi
4:15 AM52 °FClear.9 mph62%30.23 "Hg10 mi
3:55 AM52 °FClear.8 mph62%30.24 "Hg10 mi
3:35 AM52 °FClear.9 mph62%30.23 "Hg10 mi
3:15 AM52 °FClear.9 mph62%30.23 "Hg10 mi
Weather by CustomWeather, © 2014

See weather overview